Observations
| Time | Sensor | AQI | SAQ | Temp °C | Hum % | Pres Pa | CO μg/m³ | H₂S μg/m³ | NO μg/m³ | NO₂ μg/m³ | O₃ μg/m³ | SO₂ μg/m³ | CO₂e PPM | VOC PPM | PM1 μg/m³ | PM2.5 μg/m³ | PM4 μg/m³ | PM10 μg/m³ | TPS µm |
|---|---|---|---|---|---|---|---|---|---|---|---|---|---|---|---|---|---|---|---|
| Tuesday 11 August 2026 | |||||||||||||||||||
| 16:59 | Trim Patrick St | 3 | 38.8 | 21 | 69,804 | 0 | 14.35 | 0 | 14.6 | 131.4 | 30.19 | 2 | 8.26 | 9.09 | |||||
| 16:58 | Trim Patrick St | 3 | 39 | 20 | 69,828 | 0 | 9.87 | 0.05 | 15.83 | 128.06 | 27.68 | 2.86 | 9.11 | 10.02 | |||||
| 16:56 | Trim Market St | 3 | 41.3 | 17 | 67,258 | 0 | 12.11 | 0 | 18.13 | 73.39 | 7.83 | 0.71 | 4.42 | 4.87 | |||||
| 16:54 | Trim Patrick St | 3 | 39.9 | 21 | 69,909 | 0 | 0 | 0 | 14.21 | 99.56 | 31.09 | 2 | 8.27 | 9.09 | |||||
| 16:54 | Trim Market St | 3 | 41.5 | 17 | 67,292 | 0 | 16.3 | 0 | 16.32 | 96.71 | 8.53 | 0 | 3.31 | 3.65 | |||||
| 16:53 | Trim Patrick St | 3 | 40.1 | 20 | 69,923 | 0 | 0 | 0 | 13.2 | 102.07 | 31.74 | 2 | 8.31 | 9.14 | |||||
| 16:52 | Trim Patrick St | 3 | 40.2 | 20 | 69,944 | 0 | 0 | 0 | 14.56 | 83.13 | 27 | 2 | 8.33 | 9.16 | |||||
| 16:52 | Trim Market St | 3 | 41.8 | 17 | 67,308 | 0 | 1.54 | 0 | 15.02 | 93.22 | 8.61 | 0.71 | 5 | 5.5 | |||||
| 16:51 | Trim Patrick St | 3 | 40.3 | 21 | 69,940 | 0 | 0 | 0 | 14.07 | 88.84 | 28.74 | 2 | 8.24 | 9.07 | |||||
| 16:50 | Trim Patrick St | 3 | 40.3 | 20 | 69,956 | 0 | 0 | 0 | 14.43 | 76.26 | 27.68 | 2 | 8.29 | 9.12 | |||||
| 16:49 | Trim Patrick St | 3 | 40.3 | 20 | 69,948 | 0 | 1.51 | 0 | 14.36 | 129.47 | 31.06 | 2.86 | 9.1 | 10.01 | |||||
| 16:48 | Trim Patrick St | 3 | 40.3 | 20 | 69,932 | 0 | 2.33 | 0 | 19.74 | 99.91 | 27.14 | 2 | 9.15 | 10.07 | |||||
| 16:47 | Trim Market St | 3 | 42.3 | 16 | 67,369 | 0 | 0 | 0 | 15 | 85 | 9.16 | 0 | 3.89 | 4.28 | |||||
| 16:46 | Trim Market St | 3 | 42.4 | 16 | 67,380 | 0 | 0 | 0 | 14.99 | 92.14 | 9.3 | 0.71 | 3.89 | 4.28 | |||||
| 16:46 | Trim Patrick St | 3 | 40.2 | 20 | 69,893 | 0 | 0 | 0 | 14.57 | 110.33 | 27.02 | 2 | 8.29 | 9.12 | |||||
| 16:45 | Trim Market St | 3 | 42.5 | 16 | 67,367 | 0 | 1.9 | 0 | 15.05 | 85.08 | 8.59 | 0 | 3.9 | 4.29 | |||||
| 16:45 | Trim Patrick St | 3 | 40.2 | 20 | 69,895 | 0 | 0 | 0 | 14.19 | 139.88 | 31.64 | 2 | 8.32 | 9.15 | |||||
| 16:44 | Trim Market St | 3 | 42.6 | 16 | 67,377 | 0 | 0 | 0 | 14.96 | 84.56 | 8.48 | 0.71 | 4.46 | 4.91 | |||||
| 16:44 | Trim Patrick St | 3 | 40.1 | 20 | 69,899 | 0 | 0 | 0 | 14.32 | 78.25 | 26.44 | 2.86 | 9.93 | 10.92 | |||||
| 16:43 | Trim Market St | 3 | 42.7 | 16 | 67,384 | 0 | 0.07 | 0 | 14.95 | 103.96 | 9.36 | 0 | 3.9 | 4.29 | |||||